contact:dominique.lefevre@mio.osupytheas.fr, maurice.libes@osupytheas.fr, didier.mallarino@osupytheas.fr
Project:EMSO http://www.emso-fr.org/EMSO-France
Depth: 2436.0 m
Title:EMSO Ligure Ouest : Data MII capteur CSTAR
DateTime,Latitude,Longitude,Instrument_Serial,Reference_Counts,Signal_Counts,Corrected_Signal_raw_counts,Calculated_Beam_c_inverse_meters,Internal_thermistor_counts
DateTime,Latitude,Longitude,Instrument_Serial,Reference_Counts,Signal_Counts,Corrected_Signal_raw_counts,Calculated_Beam_c_inverse_meters,Internal_thermistor_counts
2019-11-29T00:00:28,42.805,6.029,CST-1368DR,7267,10180,15294,0.083,551
2019-11-29T00:03:29,42.805,6.029,CST-1368DR,7267,10180,15294,0.083,551
2019-11-29T00:06:31,42.805,6.029,CST-1368DR,7267,10180,15295,0.083,551
2019-11-29T00:09:33,42.805,6.029,CST-1368DR,7267,10180,15294,0.083,551
2019-11-29T00:12:34,42.805,6.029,CST-1368DR,7267,10181,15296,0.083,551
2019-11-29T00:15:36,42.805,6.029,CST-1368DR,7267,10179,15292,0.084,551
2019-11-29T00:18:38,42.805,6.029,CST-1368DR,7267,10178,15291,0.084,551
2019-11-29T00:21:39,42.805,6.029,CST-1368DR,7267,10175,15287,0.085,551
2019-11-29T00:24:41,42.805,6.029,CST-1368DR,7267,10180,15295,0.083,551
2019-11-29T00:27:43,42.805,6.029,CST-1368DR,7267,10179,15293,0.084,551
2019-11-29T00:30:44,42.805,6.029,CST-1368DR,7267,10180,15294,0.083,551
2019-11-29T00:33:46,42.805,6.029,CST-1368DR,7267,10179,15293,0.084,551
2019-11-29T00:36:47,42.805,6.029,CST-1368DR,7267,10177,15289,0.085,551
2019-11-29T00:39:49,42.805,6.029,CST-1368DR,7267,10176,15288,0.085,551
2019-11-29T00:42:51,42.805,6.029,CST-1368DR,7267,10175,15287,0.085,551
2019-11-29T00:45:52,42.805,6.029,CST-1368DR,7267,10172,15282,0.086,551
2019-11-29T00:48:54,42.805,6.029,CST-1368DR,7267,10177,15290,0.084,551
2019-11-29T00:51:56,42.805,6.029,CST-1368DR,7267,10179,15293,0.084,551
2019-11-29T00:54:57,42.805,6.029,CST-1368DR,7267,10179,15293,0.084,551
2019-11-29T00:57:59,42.805,6.029,CST-1368DR,7267,10177,15290,0.084,551
2019-11-29T01:01:01,42.805,6.029,CST-1368DR,7267,10177,15290,0.084,551
2019-11-29T01:04:02,42.805,6.029,CST-1368DR,7267,10176,15288,0.085,551
2019-11-29T01:07:04,42.805,6.029,CST-1368DR,7267,10181,15296,0.083,551
2019-11-29T01:10:06,42.805,6.029,CST-1368DR,7267,10180,15294,0.083,551
2019-11-29T01:13:07,42.805,6.029,CST-1368DR,7267,10177,15290,0.084,551
2019-11-29T01:16:09,42.805,6.029,CST-1368DR,7267,10181,15295,0.083,551
2019-11-29T01:19:11,42.805,6.029,CST-1368DR,7267,10180,15295,0.083,550
2019-11-29T01:22:12,42.805,6.029,CST-1368DR,7267,10178,15291,0.084,551
2019-11-29T01:25:14,42.805,6.029,CST-1368DR,7267,10179,15293,0.084,551
2019-11-29T01:28:16,42.805,6.029,CST-1368DR,7267,10179,15292,0.084,551
2019-11-29T01:31:17,42.805,6.029,CST-1368DR,7267,10180,15295,0.083,551
2019-11-29T01:34:19,42.805,6.029,CST-1368DR,7267,10180,15295,0.083,551
2019-11-29T01:37:21,42.805,6.029,CST-1368DR,7267,10181,15296,0.083,551
2019-11-29T01:40:22,42.805,6.029,CST-1368DR,7267,10179,15293,0.084,551
2019-11-29T01:43:24,42.805,6.029,CST-1368DR,7267,10180,15294,0.083,551
2019-11-29T01:46:25,42.805,6.029,CST-1368DR,7267,10180,15294,0.083,551
2019-11-29T01:49:27,42.805,6.029,CST-1368DR,7267,10180,15295,0.083,550
2019-11-29T01:52:29,42.805,6.029,CST-1368DR,7267,10178,15291,0.084,551
2019-11-29T01:55:30,42.805,6.029,CST-1368DR,7266,10176,15290,0.084,551
2019-11-29T01:58:32,42.805,6.029,CST-1368DR,7266,10180,15297,0.083,551
2019-11-29T02:01:34,42.805,6.029,CST-1368DR,7266,10178,15293,0.084,551
2019-11-29T02:04:35,42.805,6.029,CST-1368DR,7266,10179,15294,0.083,551
2019-11-29T02:07:37,42.805,6.029,CST-1368DR,7266,10179,15295,0.083,550
2019-11-29T02:10:39,42.805,6.029,CST-1368DR,7266,10180,15297,0.083,551
2019-11-29T02:13:40,42.805,6.029,CST-1368DR,7266,10179,15295,0.083,551
2019-11-29T02:16:42,42.805,6.029,CST-1368DR,7266,10178,15293,0.084,551
2019-11-29T02:19:43,42.805,6.029,CST-1368DR,7266,10173,15285,0.086,551
2019-11-29T02:22:45,42.805,6.029,CST-1368DR,7266,10179,15295,0.083,551
2019-11-29T02:25:47,42.805,6.029,CST-1368DR,7266,10176,15291,0.084,551
2019-11-29T02:28:48,42.805,6.029,CST-1368DR,7266,10177,15292,0.084,551
2019-11-29T02:31:50,42.805,6.029,CST-1368DR,7266,10177,15291,0.084,551
2019-11-29T02:34:52,42.805,6.029,CST-1368DR,7266,10178,15293,0.084,551
2019-11-29T02:37:53,42.805,6.029,CST-1368DR,7266,10180,15297,0.083,551
2019-11-29T02:40:55,42.805,6.029,CST-1368DR,7266,10175,15289,0.085,551
2019-11-29T02:43:56,42.805,6.029,CST-1368DR,7266,10180,15296,0.083,551
2019-11-29T02:46:58,42.805,6.029,CST-1368DR,7266,10176,15291,0.084,551
2019-11-29T02:50:00,42.805,6.029,CST-1368DR,7266,10180,15296,0.083,551
2019-11-29T02:53:01,42.805,6.029,CST-1368DR,7266,10179,15295,0.083,551
2019-11-29T02:56:03,42.805,6.029,CST-1368DR,7266,10179,15295,0.083,551
2019-11-29T02:59:05,42.805,6.029,CST-1368DR,7266,10178,15293,0.084,551
2019-11-29T03:02:06,42.805,6.029,CST-1368DR,7266,10174,15287,0.085,551
2019-11-29T03:05:08,42.805,6.029,CST-1368DR,7266,10180,15296,0.083,551
2019-11-29T03:08:09,42.805,6.029,CST-1368DR,7266,10179,15294,0.083,550
2019-11-29T03:11:11,42.805,6.029,CST-1368DR,7266,10179,15295,0.083,551
2019-11-29T03:14:13,42.805,6.029,CST-1368DR,7266,10177,15292,0.084,551
2019-11-29T03:17:14,42.805,6.029,CST-1368DR,7266,10177,15292,0.084,551
2019-11-29T03:20:16,42.805,6.029,CST-1368DR,7266,10180,15296,0.083,551
2019-11-29T03:23:18,42.805,6.029,CST-1368DR,7266,10180,15296,0.083,551
2019-11-29T03:26:19,42.805,6.029,CST-1368DR,7266,10179,15295,0.083,551
2019-11-29T03:29:21,42.805,6.029,CST-1368DR,7266,10179,15295,0.083,551
2019-11-29T03:32:22,42.805,6.029,CST-1368DR,7266,10179,15295,0.083,551
2019-11-29T03:35:24,42.805,6.029,CST-1368DR,7266,10180,15297,0.083,551
2019-11-29T03:38:26,42.805,6.029,CST-1368DR,7266,10179,15294,0.083,551
2019-11-29T03:41:27,42.805,6.029,CST-1368DR,7266,10179,15294,0.083,551
2019-11-29T03:44:29,42.805,6.029,CST-1368DR,7266,10178,15293,0.084,551
2019-11-29T03:47:31,42.805,6.029,CST-1368DR,7266,10179,15295,0.083,551
2019-11-29T03:50:32,42.805,6.029,CST-1368DR,7266,10179,15295,0.083,550
2019-11-29T03:53:34,42.805,6.029,CST-1368DR,7266,10180,15296,0.083,551
2019-11-29T03:56:35,42.805,6.029,CST-1368DR,7266,10177,15292,0.084,551
2019-11-29T03:59:37,42.805,6.029,CST-1368DR,7266,10179,15295,0.083,551
2019-11-29T04:02:39,42.805,6.029,CST-1368DR,7266,10178,15293,0.084,551
2019-11-29T04:05:40,42.805,6.029,CST-1368DR,7266,10178,15293,0.084,551
2019-11-29T04:08:42,42.805,6.029,CST-1368DR,7266,10176,15290,0.084,551
2019-11-29T04:11:44,42.805,6.029,CST-1368DR,7266,10175,15288,0.085,551
2019-11-29T04:14:45,42.805,6.029,CST-1368DR,7266,10179,15294,0.083,551
2019-11-29T04:17:47,42.805,6.029,CST-1368DR,7266,10177,15291,0.084,550
2019-11-29T04:20:48,42.805,6.029,CST-1368DR,7266,10177,15292,0.084,551
2019-11-29T04:23:50,42.805,6.029,CST-1368DR,7266,10180,15296,0.083,551
2019-11-29T04:26:52,42.805,6.029,CST-1368DR,7266,10179,15295,0.083,551
2019-11-29T04:29:53,42.805,6.029,CST-1368DR,7265,10176,15293,0.084,551
2019-11-29T04:32:55,42.805,6.029,CST-1368DR,7266,10177,15292,0.084,551
2019-11-29T04:35:57,42.805,6.029,CST-1368DR,7266,10177,15292,0.084,551
2019-11-29T04:38:58,42.805,6.029,CST-1368DR,7266,10167,15276,0.088,551
2019-11-29T04:42:00,42.805,6.029,CST-1368DR,7266,10177,15291,0.084,550
2019-11-29T04:45:02,42.805,6.029,CST-1368DR,7265,10173,15288,0.085,551
2019-11-29T04:48:03,42.805,6.029,CST-1368DR,7266,10177,15292,0.084,551
2019-11-29T04:51:05,42.805,6.029,CST-1368DR,7266,10177,15291,0.084,551
2019-11-29T04:54:07,42.805,6.029,CST-1368DR,7266,10177,15292,0.084,550
2019-11-29T04:57:08,42.805,6.029,CST-1368DR,7266,10178,15293,0.084,550
2019-11-29T05:00:10,42.805,6.029,CST-1368DR,7266,10179,15295,0.083,550
2019-11-29T05:03:12,42.805,6.029,CST-1368DR,7265,10179,15296,0.083,551
2019-11-29T05:06:13,42.805,6.029,CST-1368DR,7265,10175,15291,0.084,551
2019-11-29T05:09:15,42.805,6.029,CST-1368DR,7265,10176,15292,0.084,551
2019-11-29T05:12:16,42.805,6.029,CST-1368DR,7265,10179,15296,0.083,551
2019-11-29T05:15:18,42.805,6.029,CST-1368DR,7265,10178,15295,0.083,551
2019-11-29T05:18:20,42.805,6.029,CST-1368DR,7266,10178,15293,0.084,551
2019-11-29T05:21:21,42.805,6.029,CST-1368DR,7265,10172,15287,0.085,551
2019-11-29T05:24:23,42.805,6.029,CST-1368DR,7265,10174,15289,0.085,551
2019-11-29T05:27:25,42.805,6.029,CST-1368DR,7265,10177,15294,0.083,551
2019-11-29T05:30:26,42.805,6.029,CST-1368DR,7265,10179,15296,0.083,551
2019-11-29T05:33:28,42.805,6.029,CST-1368DR,7265,10177,15294,0.083,551
2019-11-29T05:36:29,42.805,6.029,CST-1368DR,7265,10177,15294,0.083,550
2019-11-29T05:39:31,42.805,6.029,CST-1368DR,7265,10177,15294,0.083,551
2019-11-29T05:42:33,42.805,6.029,CST-1368DR,7265,10176,15292,0.084,551
2019-11-29T05:45:35,42.805,6.029,CST-1368DR,7265,10178,15295,0.083,550
2019-11-29T05:48:36,42.805,6.029,CST-1368DR,7265,10174,15289,0.085,551
2019-11-29T05:51:38,42.805,6.029,CST-1368DR,7265,10176,15292,0.084,551
2019-11-29T05:54:40,42.805,6.029,CST-1368DR,7265,10177,15294,0.083,551
2019-11-29T05:57:41,42.805,6.029,CST-1368DR,7265,10179,15297,0.083,551
2019-11-29T06:00:43,42.805,6.029,CST-1368DR,7265,10179,15297,0.083,551
2019-11-29T06:03:45,42.805,6.029,CST-1368DR,7265,10178,15295,0.083,551
2019-11-29T06:06:46,42.805,6.029,CST-1368DR,7265,10177,15294,0.083,551
2019-11-29T06:09:48,42.805,6.029,CST-1368DR,7265,10178,15295,0.083,551
2019-11-29T06:12:50,42.805,6.029,CST-1368DR,7265,10177,15294,0.083,551
2019-11-29T06:15:51,42.805,6.029,CST-1368DR,7265,10179,15297,0.083,551
2019-11-29T06:18:53,42.805,6.029,CST-1368DR,7265,10176,15293,0.084,551
2019-11-29T06:21:54,42.805,6.029,CST-1368DR,7265,10178,15295,0.083,550
2019-11-29T06:24:56,42.805,6.029,CST-1368DR,7265,10170,15284,0.086,551
2019-11-29T06:27:58,42.805,6.029,CST-1368DR,7265,10176,15292,0.084,551
2019-11-29T06:30:59,42.805,6.029,CST-1368DR,7265,10175,15291,0.084,551
2019-11-29T06:34:01,42.805,6.029,CST-1368DR,7265,10179,15297,0.083,551
2019-11-29T06:37:03,42.805,6.029,CST-1368DR,7265,10175,15290,0.084,551
2019-11-29T06:40:04,42.805,6.029,CST-1368DR,7265,10177,15294,0.083,551
2019-11-29T06:43:06,42.805,6.029,CST-1368DR,7265,10176,15293,0.084,551
2019-11-29T06:46:07,42.805,6.029,CST-1368DR,7265,10177,15294,0.083,551
2019-11-29T06:49:09,42.805,6.029,CST-1368DR,7265,10174,15290,0.084,551
2019-11-29T06:52:11,42.805,6.029,CST-1368DR,7265,10178,15295,0.083,551
2019-11-29T06:55:13,42.805,6.029,CST-1368DR,7265,10176,15292,0.084,551
2019-11-29T06:58:14,42.805,6.029,CST-1368DR,7265,10178,15295,0.083,550
2019-11-29T07:01:16,42.805,6.029,CST-1368DR,7265,10177,15294,0.083,551
2019-11-29T07:04:18,42.805,6.029,CST-1368DR,7265,10178,15295,0.083,551
2019-11-29T07:07:19,42.805,6.029,CST-1368DR,7265,10178,15295,0.083,551
2019-11-29T07:10:21,42.805,6.029,CST-1368DR,7265,10177,15294,0.083,551
2019-11-29T07:13:22,42.805,6.029,CST-1368DR,7265,10177,15294,0.083,551
2019-11-29T07:16:24,42.805,6.029,CST-1368DR,7265,10178,15295,0.083,551
2019-11-29T07:19:26,42.805,6.029,CST-1368DR,7265,10178,15295,0.083,551
2019-11-29T07:22:27,42.805,6.029,CST-1368DR,7264,10177,15295,0.083,550
2019-11-29T07:25:29,42.805,6.029,CST-1368DR,7265,10178,15295,0.083,551
2019-11-29T07:28:31,42.805,6.029,CST-1368DR,7264,10177,15295,0.083,551
2019-11-29T07:31:32,42.805,6.029,CST-1368DR,7265,10176,15292,0.084,551
2019-11-29T07:34:34,42.805,6.029,CST-1368DR,7264,10177,15296,0.083,551
2019-11-29T07:37:35,42.805,6.029,CST-1368DR,7264,10178,15297,0.083,551
2019-11-29T07:40:37,42.805,6.029,CST-1368DR,7264,10177,15296,0.083,551
2019-11-29T07:43:39,42.805,6.029,CST-1368DR,7264,10177,15296,0.083,551
2019-11-29T07:46:40,42.805,6.029,CST-1368DR,7264,10178,15297,0.083,551
2019-11-29T07:49:42,42.805,6.029,CST-1368DR,7264,10177,15295,0.083,551
2019-11-29T07:52:44,42.805,6.029,CST-1368DR,7264,10177,15296,0.083,550
2019-11-29T07:55:45,42.805,6.029,CST-1368DR,7264,10175,15292,0.084,551
2019-11-29T07:58:47,42.805,6.029,CST-1368DR,7264,10177,15296,0.083,551
2019-11-29T08:01:48,42.805,6.029,CST-1368DR,7264,10173,15290,0.084,551
2019-11-29T08:04:50,42.805,6.029,CST-1368DR,7264,10176,15294,0.083,551
2019-11-29T08:07:52,42.805,6.029,CST-1368DR,7264,10177,15295,0.083,551
2019-11-29T08:10:53,42.805,6.029,CST-1368DR,7264,10176,15294,0.083,551
2019-11-29T08:13:55,42.805,6.029,CST-1368DR,7264,10177,15296,0.083,551
2019-11-29T08:16:57,42.805,6.029,CST-1368DR,7264,10176,15295,0.083,551
2019-11-29T08:19:58,42.805,6.029,CST-1368DR,7264,10176,15294,0.083,551
2019-11-29T08:23:00,42.805,6.029,CST-1368DR,7264,10173,15290,0.084,551
2019-11-29T08:26:01,42.805,6.029,CST-1368DR,7264,10176,15294,0.083,551
2019-11-29T08:29:03,42.805,6.029,CST-1368DR,7264,10177,15295,0.083,551
2019-11-29T08:32:05,42.805,6.029,CST-1368DR,7264,10175,15293,0.084,551
2019-11-29T08:35:06,42.805,6.029,CST-1368DR,7264,10176,15294,0.083,550
2019-11-29T08:38:08,42.805,6.029,CST-1368DR,7264,10177,15296,0.083,551
2019-11-29T08:41:10,42.805,6.029,CST-1368DR,7264,10175,15293,0.084,551
2019-11-29T08:44:11,42.805,6.029,CST-1368DR,7264,10176,15294,0.083,550
2019-11-29T08:47:13,42.805,6.029,CST-1368DR,7264,10171,15287,0.085,551
2019-11-29T08:50:15,42.805,6.029,CST-1368DR,7264,10176,15295,0.083,551
2019-11-29T08:53:16,42.805,6.029,CST-1368DR,7264,10177,15296,0.083,551
2019-11-29T08:56:18,42.805,6.029,CST-1368DR,7264,10176,15294,0.083,551
2019-11-29T08:59:20,42.805,6.029,CST-1368DR,7264,10175,15292,0.084,550
2019-11-29T09:02:21,42.805,6.029,CST-1368DR,7264,10175,15292,0.084,551
2019-11-29T09:05:23,42.805,6.029,CST-1368DR,7264,10176,15294,0.083,551
2019-11-29T09:08:25,42.805,6.029,CST-1368DR,7264,10175,15293,0.084,551
2019-11-29T09:11:26,42.805,6.029,CST-1368DR,7264,10176,15294,0.083,551
2019-11-29T09:14:28,42.805,6.029,CST-1368DR,7264,10175,15293,0.084,551
2019-11-29T09:17:29,42.805,6.029,CST-1368DR,7264,10174,15291,0.084,550
2019-11-29T09:20:31,42.805,6.029,CST-1368DR,7264,10175,15292,0.084,551
2019-11-29T09:23:33,42.805,6.029,CST-1368DR,7264,10174,15291,0.084,550
2019-11-29T09:26:34,42.805,6.029,CST-1368DR,7264,10174,15291,0.084,551
2019-11-29T09:29:37,42.805,6.029,CST-1368DR,7264,10175,15292,0.084,551
2019-11-29T09:32:38,42.805,6.029,CST-1368DR,7264,10175,15293,0.084,551
2019-11-29T09:35:40,42.805,6.029,CST-1368DR,7264,10177,15295,0.083,551
2019-11-29T09:38:41,42.805,6.029,CST-1368DR,7264,10175,15293,0.084,551
2019-11-29T09:41:43,42.805,6.029,CST-1368DR,7264,10174,15291,0.084,551
2019-11-29T09:44:45,42.805,6.029,CST-1368DR,7264,10175,15293,0.084,551
2019-11-29T09:47:46,42.805,6.029,CST-1368DR,7263,10168,15284,0.086,551
2019-11-29T09:50:48,42.805,6.029,CST-1368DR,7264,10174,15292,0.084,551
2019-11-29T09:53:50,42.805,6.029,CST-1368DR,7263,10175,15294,0.083,551
2019-11-29T09:56:51,42.805,6.029,CST-1368DR,7263,10175,15295,0.083,551
2019-11-29T09:59:53,42.805,6.029,CST-1368DR,7263,10174,15293,0.084,551
2019-11-29T10:02:54,42.805,6.029,CST-1368DR,7263,10173,15292,0.084,551
2019-11-29T10:05:56,42.805,6.029,CST-1368DR,7263,10173,15291,0.084,551
2019-11-29T10:08:58,42.805,6.029,CST-1368DR,7263,10172,15290,0.084,551
2019-11-29T10:11:59,42.805,6.029,CST-1368DR,7263,10169,15285,0.086,551
2019-11-29T10:15:01,42.805,6.029,CST-1368DR,7263,10170,15287,0.085,551
2019-11-29T10:18:03,42.805,6.029,CST-1368DR,7263,10173,15292,0.084,550
2019-11-29T10:21:04,42.805,6.029,CST-1368DR,7263,10175,15295,0.083,551
2019-11-29T10:24:06,42.805,6.029,CST-1368DR,7263,10175,15295,0.083,551
2019-11-29T10:27:07,42.805,6.029,CST-1368DR,7263,10173,15292,0.084,550
2019-11-29T10:30:09,42.805,6.029,CST-1368DR,7263,10172,15290,0.084,551
2019-11-29T10:33:11,42.805,6.029,CST-1368DR,7263,10167,15282,0.086,551
2019-11-29T10:36:12,42.805,6.029,CST-1368DR,7263,10175,15295,0.083,550
2019-11-29T10:39:14,42.805,6.029,CST-1368DR,7263,10173,15291,0.084,551
2019-11-29T10:42:16,42.805,6.029,CST-1368DR,7263,10173,15292,0.084,551
2019-11-29T10:45:17,42.805,6.029,CST-1368DR,7263,10175,15295,0.083,551
2019-11-29T10:48:19,42.805,6.029,CST-1368DR,7263,10173,15292,0.084,551
2019-11-29T10:51:20,42.805,6.029,CST-1368DR,7263,10175,15295,0.083,551
2019-11-29T10:54:22,42.805,6.029,CST-1368DR,7263,10173,15292,0.084,550
2019-11-29T10:57:24,42.805,6.029,CST-1368DR,7263,10167,15282,0.086,551
2019-11-29T11:00:25,42.805,6.029,CST-1368DR,7263,10174,15293,0.084,551
2019-11-29T11:03:27,42.805,6.029,CST-1368DR,7263,10174,15293,0.084,551
2019-11-29T11:06:29,42.805,6.029,CST-1368DR,7263,10168,15284,0.086,550
2019-11-29T11:09:30,42.805,6.029,CST-1368DR,7263,10171,15289,0.085,551
2019-11-29T11:12:32,42.805,6.029,CST-1368DR,7263,10171,15288,0.085,550
2019-11-29T11:15:34,42.805,6.029,CST-1368DR,7263,10174,15293,0.084,551
2019-11-29T11:18:35,42.805,6.029,CST-1368DR,7263,10174,15293,0.084,551
2019-11-29T11:21:37,42.805,6.029,CST-1368DR,7263,10171,15289,0.085,551
2019-11-29T11:24:39,42.805,6.029,CST-1368DR,7263,10171,15288,0.085,551
2019-11-29T11:27:40,42.805,6.029,CST-1368DR,7263,10175,15294,0.083,551
2019-11-29T11:30:42,42.805,6.029,CST-1368DR,7263,10174,15293,0.084,551
2019-11-29T11:33:44,42.805,6.029,CST-1368DR,7263,10170,15288,0.085,551
2019-11-29T11:36:45,42.805,6.029,CST-1368DR,7263,10174,15294,0.083,551
2019-11-29T11:39:47,42.805,6.029,CST-1368DR,7263,10175,15294,0.083,551
2019-11-29T11:42:49,42.805,6.029,CST-1368DR,7263,10173,15292,0.084,551
2019-11-29T11:45:50,42.805,6.029,CST-1368DR,7263,10172,15291,0.084,551
2019-11-29T11:48:52,42.805,6.029,CST-1368DR,7262,10166,15284,0.086,551
2019-11-29T11:51:53,42.805,6.029,CST-1368DR,7263,10173,15291,0.084,551
2019-11-29T11:54:55,42.805,6.029,CST-1368DR,7262,10173,15294,0.083,550
2019-11-29T11:57:57,42.805,6.029,CST-1368DR,7263,10173,15291,0.084,551
2019-11-29T12:00:59,42.805,6.029,CST-1368DR,7263,10175,15294,0.083,551
2019-11-29T12:04:00,42.805,6.029,CST-1368DR,7262,10174,15295,0.083,551
2019-11-29T12:07:02,42.805,6.029,CST-1368DR,7263,10173,15292,0.084,551
2019-11-29T12:10:03,42.805,6.029,CST-1368DR,7263,10174,15294,0.083,551
2019-11-29T12:13:05,42.805,6.029,CST-1368DR,7263,10174,15294,0.083,551
2019-11-29T12:16:07,42.805,6.029,CST-1368DR,7263,10175,15295,0.083,551
2019-11-29T12:19:09,42.805,6.029,CST-1368DR,7263,10171,15288,0.085,551
2019-11-29T12:22:10,42.805,6.029,CST-1368DR,7263,10176,15296,0.083,551
2019-11-29T12:25:12,42.805,6.029,CST-1368DR,7263,10175,15295,0.083,550
2019-11-29T12:28:14,42.805,6.029,CST-1368DR,7263,10173,15292,0.084,550
2019-11-29T12:31:15,42.805,6.029,CST-1368DR,7263,10174,15293,0.084,551
2019-11-29T12:34:17,42.805,6.029,CST-1368DR,7263,10175,15294,0.083,551
2019-11-29T12:37:19,42.805,6.029,CST-1368DR,7263,10168,15284,0.086,551
2019-11-29T12:40:20,42.805,6.029,CST-1368DR,7263,10173,15292,0.084,551
2019-11-29T12:43:22,42.805,6.029,CST-1368DR,7263,10173,15292,0.084,551
2019-11-29T12:46:23,42.805,6.029,CST-1368DR,7263,10169,15286,0.085,551
2019-11-29T12:49:25,42.805,6.029,CST-1368DR,7263,10173,15291,0.084,551
2019-11-29T12:52:27,42.805,6.029,CST-1368DR,7263,10171,15288,0.085,551
2019-11-29T12:55:28,42.805,6.029,CST-1368DR,7263,10173,15292,0.084,551
2019-11-29T12:58:30,42.805,6.029,CST-1368DR,7263,10174,15294,0.083,551
2019-11-29T13:01:32,42.805,6.029,CST-1368DR,7263,10173,15291,0.084,551
2019-11-29T13:04:33,42.805,6.029,CST-1368DR,7263,10173,15292,0.084,551
2019-11-29T13:07:35,42.805,6.029,CST-1368DR,7263,10173,15292,0.084,551
2019-11-29T13:10:36,42.805,6.029,CST-1368DR,7263,10171,15289,0.085,551
2019-11-29T13:13:38,42.805,6.029,CST-1368DR,7263,10173,15291,0.084,551
2019-11-29T13:16:40,42.805,6.029,CST-1368DR,7263,10171,15289,0.085,551
2019-11-29T13:19:41,42.805,6.029,CST-1368DR,7263,10174,15293,0.084,551
2019-11-29T13:22:43,42.805,6.029,CST-1368DR,7263,10173,15292,0.084,551
2019-11-29T13:25:45,42.805,6.029,CST-1368DR,7263,10174,15293,0.084,551
2019-11-29T13:28:46,42.805,6.029,CST-1368DR,7262,10172,15292,0.084,551
2019-11-29T13:31:48,42.805,6.029,CST-1368DR,7263,10173,15292,0.084,551
2019-11-29T13:34:49,42.805,6.029,CST-1368DR,7262,10170,15290,0.084,551
2019-11-29T13:37:51,42.805,6.029,CST-1368DR,7262,10171,15290,0.084,551
2019-11-29T13:40:53,42.805,6.029,CST-1368DR,7262,10171,15290,0.084,550
2019-11-29T13:43:54,42.805,6.029,CST-1368DR,7262,10170,15289,0.085,551
2019-11-29T13:46:56,42.805,6.029,CST-1368DR,7262,10163,15279,0.087,551
2019-11-29T13:49:58,42.805,6.029,CST-1368DR,7262,10170,15289,0.085,551
2019-11-29T13:52:59,42.805,6.029,CST-1368DR,7262,10167,15285,0.086,551
2019-11-29T13:56:01,42.805,6.029,CST-1368DR,7262,10173,15293,0.084,550
2019-11-29T13:59:03,42.805,6.029,CST-1368DR,7262,10173,15293,0.084,551
2019-11-29T14:02:04,42.805,6.029,CST-1368DR,7262,10170,15289,0.085,551
2019-11-29T14:05:06,42.805,6.029,CST-1368DR,7263,10171,15289,0.085,551
2019-11-29T14:08:07,42.805,6.029,CST-1368DR,7262,10170,15289,0.085,551
2019-11-29T14:11:09,42.805,6.029,CST-1368DR,7262,10168,15286,0.085,551
2019-11-29T14:14:11,42.805,6.029,CST-1368DR,7262,10173,15294,0.083,551
2019-11-29T14:17:12,42.805,6.029,CST-1368DR,7263,10171,15289,0.085,551
2019-11-29T14:20:14,42.805,6.029,CST-1368DR,7263,10172,15290,0.084,551
2019-11-29T14:23:16,42.805,6.029,CST-1368DR,7263,10171,15288,0.085,551
2019-11-29T14:26:17,42.805,6.029,CST-1368DR,7262,10171,15290,0.084,551
2019-11-29T14:29:19,42.805,6.029,CST-1368DR,7263,10174,15293,0.084,551
2019-11-29T14:32:20,42.805,6.029,CST-1368DR,7262,10174,15295,0.083,551
2019-11-29T14:35:22,42.805,6.029,CST-1368DR,7262,10176,15298,0.082,551
2019-11-29T14:38:24,42.805,6.029,CST-1368DR,7262,10170,15290,0.084,551
2019-11-29T14:41:26,42.805,6.029,CST-1368DR,7262,10172,15293,0.084,551
2019-11-29T14:44:27,42.805,6.029,CST-1368DR,7262,10170,15290,0.084,551
2019-11-29T14:47:29,42.805,6.029,CST-1368DR,7262,10171,15290,0.084,551
2019-11-29T14:50:30,42.805,6.029,CST-1368DR,7262,10172,15292,0.084,550
2019-11-29T14:53:32,42.805,6.029,CST-1368DR,7262,10169,15287,0.085,551
2019-11-29T14:56:34,42.805,6.029,CST-1368DR,7262,10173,15293,0.084,550
2019-11-29T14:59:36,42.805,6.029,CST-1368DR,7262,10173,15293,0.084,551
2019-11-29T15:02:38,42.805,6.029,CST-1368DR,7262,10172,15293,0.084,551
2019-11-29T15:05:39,42.805,6.029,CST-1368DR,7262,10173,15293,0.084,551
2019-11-29T15:08:41,42.805,6.029,CST-1368DR,7262,10172,15292,0.084,551
2019-11-29T15:11:43,42.805,6.029,CST-1368DR,7262,10171,15290,0.084,551
2019-11-29T15:14:44,42.805,6.029,CST-1368DR,7262,10163,15278,0.088,551
2019-11-29T15:17:46,42.805,6.029,CST-1368DR,7262,10171,15290,0.084,551
2019-11-29T15:20:48,42.805,6.029,CST-1368DR,7262,10171,15291,0.084,551
2019-11-29T15:23:49,42.805,6.029,CST-1368DR,7262,10172,15293,0.084,551
2019-11-29T15:26:51,42.805,6.029,CST-1368DR,7262,10170,15289,0.085,551
2019-11-29T15:29:52,42.805,6.029,CST-1368DR,7262,10168,15286,0.085,551
2019-11-29T15:32:54,42.805,6.029,CST-1368DR,7262,10172,15293,0.084,551
2019-11-29T15:35:56,42.805,6.029,CST-1368DR,7262,10173,15293,0.084,551
2019-11-29T15:38:57,42.805,6.029,CST-1368DR,7262,10172,15293,0.084,551
2019-11-29T15:41:59,42.805,6.029,CST-1368DR,7262,10173,15293,0.084,551
2019-11-29T15:45:01,42.805,6.029,CST-1368DR,7262,10172,15293,0.084,551
2019-11-29T15:48:02,42.805,6.029,CST-1368DR,7262,10169,15287,0.085,551
2019-11-29T15:51:04,42.805,6.029,CST-1368DR,7262,10172,15293,0.084,551
2019-11-29T15:54:05,42.805,6.029,CST-1368DR,7262,10167,15285,0.086,551
2019-11-29T15:57:07,42.805,6.029,CST-1368DR,7262,10167,15284,0.086,551
2019-11-29T16:00:09,42.805,6.029,CST-1368DR,7262,10172,15292,0.084,551
2019-11-29T16:03:10,42.805,6.029,CST-1368DR,7262,10173,15293,0.084,551
2019-11-29T16:06:12,42.805,6.029,CST-1368DR,7262,10173,15293,0.084,551
2019-11-29T16:09:14,42.805,6.029,CST-1368DR,7262,10170,15289,0.085,551
2019-11-29T16:12:15,42.805,6.029,CST-1368DR,7262,10172,15293,0.084,551
2019-11-29T16:15:17,42.805,6.029,CST-1368DR,7262,10171,15290,0.084,551
2019-11-29T16:18:19,42.805,6.029,CST-1368DR,7262,10171,15290,0.084,551
2019-11-29T16:21:20,42.805,6.029,CST-1368DR,7262,10170,15289,0.085,551
2019-11-29T16:24:22,42.805,6.029,CST-1368DR,7262,10172,15292,0.084,551
2019-11-29T16:27:23,42.805,6.029,CST-1368DR,7262,10171,15290,0.084,551
2019-11-29T16:30:25,42.805,6.029,CST-1368DR,7262,10164,15280,0.087,551
2019-11-29T16:33:27,42.805,6.029,CST-1368DR,7262,10170,15289,0.085,550
2019-11-29T16:36:28,42.805,6.029,CST-1368DR,7262,10170,15289,0.085,550